Danbury, CT

12:12 PM EDT on July 27, 2017 (GMT -0400)
Danbury Municipal

Weather History for KDXR - January, 2001

Change the Weather History Date:

Thursday, January 25, 2001

  Actual Average Record
Temperature  
Mean Temperature 29 °F -  
Max Temperature 37 °F 37 °F 54 °F (1967)
Min Temperature 21 °F 22 °F -4 °F (1961)
Degree Days  
Heating Degree Days 36    
Moisture  
Dew Point 20 °F    
Average Humidity 72    
Maximum Humidity 93    
Minimum Humidity 50    
Precipitation  
Precipitation 0.00 in - - ()
Sea Level Pressure  
Sea Level Pressure 30.06 in    
Wind  
Wind Speed 3 mph (NNW)    
Max Wind Speed 14 mph    
Max Gust Speed 23 mph    
Visibility 7 miles    
Events Snow    
Averages and records for this station are not official NWS values.
T = Trace of Precipitation, MM = Missing Value Source: NWS Daily Summary

Daily Weather History Graph

Daily Weather History Graph

Search for Another Location

Airport or City:

Trip Planner

Search our weather history database for the weather conditions in past years. The results will help you decide how hot, cold, wet, or windy it might be!

Date:

Astronomy

Jan. 25, 2001 Rise Set
Actual Time 7:11 AM EST 5:01 PM EST
Civil Twilight 6:41 AM EST 5:31 PM EST
Nautical Twilight 6:08 AM EST 6:04 PM EST
Astronomical Twilight 5:35 AM EST 6:37 PM EST
Moon 8:02 AM EST (1/25) 6:07 PM EST (1/25)
Length of Visible Light 10h 49m
Length of Day
9h 50m
New Moon, 1% of the Moon is Illuminated
Jan 25
New Moon
Feb 1
First Quarter
Feb 8
Full
Feb 14
Last Quarter
Feb 23
New

Hourly Weather History & Observations

Time (EST) Temp. Windchill Dew Point Humidity Pressure Visibility Wind Dir Wind Speed Gust Speed Precip Events Conditions
12:53 AM 26.1 °F - 23.0 °F 88% 29.96 in 6.0 mi Calm Calm - N/A   Overcast
1:53 AM 27.0 °F - 23.0 °F 85% 29.95 in 5.0 mi Calm Calm - N/A   Overcast
3:53 AM 25.0 °F - 21.9 °F 88% 29.96 in 6.0 mi Calm Calm - N/A   Overcast
4:53 AM 25.0 °F - 21.9 °F 88% 29.96 in 5.0 mi Calm Calm - N/A   Overcast
5:53 AM 25.0 °F - 21.9 °F 88% 29.98 in 5.0 mi Calm Calm - N/A   Overcast
6:53 AM 25.0 °F - 21.9 °F 88% 30.01 in 5.0 mi Calm Calm - N/A   Overcast
7:53 AM 25.0 °F - 21.9 °F 88% 30.01 in 4.0 mi Calm Calm - N/A   Overcast
8:26 AM 26.6 °F - 24.8 °F 93% 30.01 in 3.0 mi Calm Calm - 0.00 in Snow Light Snow
8:33 AM 28.4 °F - 24.8 °F 86% 30.01 in 2.0 mi Calm Calm - 0.00 in Snow Light Snow
8:46 AM 28.4 °F - 24.8 °F 86% 30.01 in 4.0 mi Calm Calm - 0.00 in   Overcast
8:53 AM 28.9 °F - 25.0 °F 85% 30.03 in 4.0 mi Calm Calm - 0.00 in   Overcast
9:00 AM 28.4 °F - 24.8 °F 86% 30.02 in 3.0 mi Calm Calm - 0.00 in Snow Light Snow
9:07 AM 28.4 °F - 24.8 °F 86% 30.02 in 2.0 mi Calm Calm - 0.00 in Snow Light Snow
9:24 AM 30.2 °F - 26.6 °F 86% 30.02 in 3.0 mi Calm Calm - 0.00 in Snow Light Snow
9:53 AM 33.1 °F 27.7 °F 25.0 °F 72% 30.04 in 7.0 mi NW 5.8 mph - 0.00 in   Overcast
10:53 AM 34.0 °F 29.8 °F 23.0 °F 64% 30.05 in 9.0 mi NNW 4.6 mph - N/A   Mostly Cloudy
11:53 AM 36.0 °F 32.1 °F 23.0 °F 59% 30.04 in 9.0 mi North 4.6 mph - N/A   Partly Cloudy
12:53 PM 37.0 °F 31.6 °F 21.9 °F 54% 30.02 in 10.0 mi WNW 6.9 mph - N/A   Clear
1:53 PM 36.0 °F 27.1 °F 19.0 °F 50% 30.04 in 10.0 mi NNW 13.8 mph 23.0 mph N/A   Mostly Cloudy
2:53 PM 36.0 °F 27.5 °F 19.9 °F 52% 30.06 in 10.0 mi NW 12.7 mph - N/A   Mostly Cloudy
3:53 PM 35.1 °F 30.1 °F 23.0 °F 61% 30.08 in 10.0 mi NNW 5.8 mph - N/A   Clear
4:53 PM 33.1 °F 25.5 °F 21.9 °F 64% 30.11 in 10.0 mi North 9.2 mph - N/A   Partly Cloudy
5:53 PM 30.0 °F 22.4 °F 17.1 °F 59% 30.15 in 10.0 mi North 8.1 mph - N/A   Clear
6:53 PM 28.9 °F 20.4 °F 15.1 °F 56% 30.18 in 10.0 mi NNW 9.2 mph - N/A   Clear
7:53 PM 27.0 °F 18.7 °F 14.0 °F 58% 30.20 in 10.0 mi North 8.1 mph - N/A   Clear
8:53 PM 25.0 °F 13.6 °F 10.9 °F 55% 30.22 in 10.0 mi North 12.7 mph 17.3 mph N/A   Clear
9:53 PM 23.0 °F 13.1 °F 10.9 °F 60% 30.23 in 10.0 mi NNW 9.2 mph - N/A   Clear
10:53 PM 21.9 °F 13.4 °F 10.0 °F 60% 30.24 in 10.0 mi NNW 6.9 mph - N/A   Clear
11:53 PM 21.0 °F 12.4 °F 8.1 °F 57% 30.24 in 10.0 mi NNW 6.9 mph - N/A   Clear